COSMOS 2251 DEB, 37959

Orbit data source: Space-Track

COSMOS 2251 DEB, 37959 is space debris in LEO originally from a launch on Wed, 16 Jun 1993 UTC launched from the Plesetsk Missile And Space Complex (PKMTR). The debris from Iridium 33, an American commercial communications satellite, has been tracked extensively since its accidental collision with the defunct Russian satellite Cosmos 2251 in 2009. This event, occurring at high speed in low Earth orbit (LEO), generated thousands of pieces of space debris, significantly increasing the risk of further collisions. The Iridium 33 debris cloud has impacted space traffic management and orbital debris mitigation strategies, making it a subject of ongoing study in space situational awareness.

Loading next visibility...
Identifier
37959, 1993-036BPJ
Orbit
LEO
Country
Flag of CISCIS
Related business
Manufacturer
Unknown
Mission
Spacecraft
Bus & Motor
Unknown
Mass
Unknown
Launch date (UTC)
1993-06-16 (33 years ago)
Launch vehicle
Unknown
Launch site
Plesetsk Missile And Space Complex (PKMTR)
Object type
Payload
Rocket body
Debris
Shape & HBR
Unknown shape, 0.1 m
Radar Cross Section
Small (<0.1 m²)

Expand to show TLE details & history
Last TLE update: 2 days ago

TLE from 2 days ago
0 COSMOS 2251 DEB
1 37959U 93036BPJ 26261.68089888  .00001902  00000-0  39774-3 0  9991
2 37959  74.0062 242.7815 0058633 313.2059 221.9692 14.59488171842093
Epoch: 2026-09-18T16:20Z
TLE epoch observation values (Epoch: 2026-09-18T16:20:29.663Z)
Latitude
4.98643°
Longitude
178.63225°
Altitude
727.903 km
Speed
7.475 km/s
True Right ascension
04h 05m 25s
True Declination
4° 57' 24"
Sunlit
Object was in daylight at epoch
Visualization orbit readout
Latitude
Unknown
Longitude
Unknown
Altitude
Unknown
Speed
Unknown
Apparent Right ascension
Unknown
Apparent Declination
Unknown
Sunlit
N/A
Visualization observer readout
Local Sidereal Time
06:23:14
Azimuth
Unknown
Elevation
Unknown
Doppler factor
Unknown
Orbital elements
Apogee altitude
733.885 km
Perigee altitude
650.971 km
Semi-major axis
7,070.565 km
Eccentricity
0.00586
Inclination
74.0062°
RAAN
242.7815°
Arg. of periapsis
313.2059°
True anomaly
221.52233°
Mean anomaly
221.9692°
Eccentric anomaly
221.74552°
Mean motion
3.65058 °/min
Orbital period
98.61 mins
BSTAR
0.00039774

Documentation

Showing up to 5 results
|